GW4073 Weather Reports


Display with metric or nautical units.
time (UTC)temp
F
wind
direction
speed
MPH
gust
MPH
rain 1hr
in
rain 24hr
in
rain mn
in
humidity
%
barometer
mb
20240614001455 81 222 5.0 11.0 0.00 0.00 0.00 24 1017.8
20240614000953 81 301 5.0 8.0 0.00 0.00 0.00 23 1017.7
20240614000454 81 218 9.0 11.0 0.00 0.00 0.00 23 1017.7
20240613235951 81 177 9.0 16.0 0.00 0.00 0.00 23 1017.8
20240613235450 81 245 2.0 12.0 0.00 0.00 0.00 23 1017.9
20240613234948 81 241 7.0 15.0 0.00 0.00 0.00 22 1018.1
20240613234442 81 254 2.0 13.0 0.00 0.00 0.00 22 1017.7
20240613233940 82 231 8.0 17.0 0.00 0.00 0.00 20 1017.4
20240613233438 82 115 2.0 12.0 0.00 0.00 0.00 20 1017.2
20240613232937 83 225 8.0 13.0 0.00 0.00 0.00 20 1017.1
20240613232437 83 260 6.0 17.0 0.00 0.00 0.00 19 1017.0
20240613231935 84 138 3.0 11.0 0.00 0.00 0.00 19 1017.2
20240613231432 84 212 5.0 13.0 0.00 0.00 0.00 18 1017.0
20240613230931 84 180 15.0 16.0 0.00 0.00 0.00 17 1017.1
20240613230429 84 243 6.0 14.0 0.00 0.00 0.00 18 1016.9
20240613225924 84 245 5.0 15.0 0.00 0.00 0.00 19 1017.1
20240613225422 85 201 5.0 14.0 0.00 0.00 0.00 18 1016.9
20240613224915 86 251 0.0 17.0 0.00 0.00 0.00 19 1017.0
20240613224410 87 268 4.0 19.0 0.00 0.00 0.00 17 1016.6
20240613223908 86 284 4.0 9.0 0.00 0.00 0.00 19 1016.8
20240613223406 86 296 4.0 7.0 0.00 0.00 0.00 20 1016.6
20240613222905 87 280 2.0 7.0 0.00 0.00 0.00 19 1016.5
20240613222403 87 232 7.0 13.0 0.00 0.00 0.00 16 1016.5
20240613221901 87 284 5.0 7.0 0.00 0.00 0.00 19 1016.4
20240613221359 88 306 2.0 6.0 0.00 0.00 0.00 18 1016.4
20240613220900 88 282 6.0 8.0 0.00 0.00 0.00 17 1016.6
20240613220400 90 287 6.0 9.0 0.00 0.00 0.00 16 1017.0
20240613215859 89 247 6.0 9.0 0.00 0.00 0.00 17 1016.6
20240613215359 88 272 5.0 12.0 0.00 0.00 0.00 16 1016.8
20240613214858 88 209 2.0 10.0 0.00 0.00 0.00 17 1016.9
20240613214357 89 189 3.0 13.0 0.00 0.00 0.00 17 1016.9
20240613213855 90 286 6.0 6.0 0.00 0.00 0.00 18 1016.9
20240613213354 89 298 4.0 13.0 0.00 0.00 0.00 17 1017.1
20240613212852 90 243 4.0 7.0 0.00 0.00 0.00 16 1017.1
20240613212350 91 244 7.0 13.0 0.00 0.00 0.00 16 1017.0
20240613211848 91 260 3.0 6.0 0.00 0.00 0.00 15 1017.1
20240613211348 90 244 2.0 5.0 0.00 0.00 0.00 15 1016.9
20240613210847 91 291 4.0 6.0 0.00 0.00 0.00 16 1017.0
20240613210345 90 288 4.0 8.0 0.00 0.00 0.00 16 1017.0
20240613205844 91 278 2.0 9.0 0.00 0.00 0.00 14 1016.6
20240613205342 91 250 3.0 6.0 0.00 0.00 0.00 15 1016.6
20240613204842 91 223 4.0 6.0 0.00 0.00 0.00 14 1016.4
20240613204341 91 264 3.0 4.0 0.00 0.00 0.00 15 1016.5
20240613203840 91 253 2.0 8.0 0.00 0.00 0.00 14 1016.4
20240613203338 91 302 4.0 9.0 0.00 0.00 0.00 13 1016.9
20240613202837 92 203 3.0 7.0 0.00 0.00 0.00 15 1016.5
20240613202335 92 263 2.0 5.0 0.00 0.00 0.00 14 1016.6
20240613201834 92 233 5.0 6.0 0.00 0.00 0.00 15 1016.9
20240613201334 91 215 2.0 4.0 0.00 0.00 0.00 14 1017.0
20240613200832 91 207 6.0 6.0 0.00 0.00 0.00 14 1016.9
20240613200332 90 291 0.0 6.0 0.00 0.00 0.00 15 1017.2
20240613195831 90 317 3.0 6.0 0.00 0.00 0.00 15 1017.1
20240613195331 91 198 2.0 5.0 0.00 0.00 0.00 15 1017.5
20240613194829 90 223 1.0 5.0 0.00 0.00 0.00 14 1017.4
20240613194327 89 300 4.0 10.0 0.00 0.00 0.00 15 1017.5
20240613193827 90 255 4.0 6.0 0.00 0.00 0.00 13 1017.6
20240613193325 90 180 3.0 8.0 0.00 0.00 0.00 13 1017.6
20240613192823 89 283 2.0 9.0 0.00 0.00 0.00 16 1017.9
20240613192323 90 283 3.0 9.0 0.00 0.00 0.00 15 1017.7
20240613191821 90 222 5.0 6.0 0.00 0.00 0.00 13 1017.9
20240613191319 88 293 3.0 8.0 0.00 0.00 0.00 17 1017.9
20240613190819 89 284 4.0 6.0 0.00 0.00 0.00 19 1018.3
20240613190317 89 235 1.0 9.0 0.00 0.00 0.00 15 1018.2
20240613185816 89 249 2.0 6.0 0.00 0.00 0.00 16 1018.3
20240613185316 89 231 4.0 7.0 0.00 0.00 0.00 14 1018.4
20240613184815 88 198 7.0 11.0 0.00 0.00 0.00 15 1018.2
20240613184315 89 250 5.0 7.0 0.00 0.00 0.00 16 1018.4
20240613183815 88 292 3.0 7.0 0.00 0.00 0.00 16 1018.1
20240613183314 89 209 2.0 5.0 0.00 0.00 0.00 18 1018.2
20240613182813 89 232 2.0 5.0 0.00 0.00 0.00 18 1018.4
20240613182311 88 235 3.0 10.0 0.00 0.00 0.00 17 1018.4
20240613181811 89 202 4.0 7.0 0.00 0.00 0.00 15 1018.2
20240613181309 89 285 3.0 4.0 0.00 0.00 0.00 17 1018.4
20240613180807 87 291 3.0 6.0 0.00 0.00 0.00 16 1018.4
20240613180306 87 264 2.0 6.0 0.00 0.00 0.00 16 1018.4
20240613175803 86 279 1.0 6.0 0.00 0.00 0.00 18 1018.5
20240613175306 86 326 3.0 5.0 0.00 0.00 0.00 18 1018.2
20240613174802 87 325 2.0 5.0 0.00 0.00 0.00 18 1018.5
20240613174300 87 201 3.0 5.0 0.00 0.00 0.00 15 1018.6
20240613173759 88 268 5.0 5.0 0.00 0.00 0.00 16 1018.4
20240613173258 86 264 4.0 4.0 0.00 0.00 0.00 17 1018.5
20240613172757 86 259 3.0 5.0 0.00 0.00 0.00 16 1018.6
20240613172256 85 248 3.0 6.0 0.00 0.00 0.00 17 1018.8
20240613171755 85 254 2.0 5.0 0.00 0.00 0.00 17 1018.9
20240613171253 85 351 2.0 4.0 0.00 0.00 0.00 18 1018.9
20240613170751 85 236 2.0 4.0 0.00 0.00 0.00 17 1019.1
20240613170250 84 220 2.0 7.0 0.00 0.00 0.00 16 1019.0
20240613165749 84 44 2.0 9.0 0.00 0.00 0.00 18 1018.8
20240613165248 83 255 5.0 6.0 0.00 0.00 0.00 18 1018.9
20240613164747 83 288 3.0 5.0 0.00 0.00 0.00 19 1019.0
20240613164246 83 113 2.0 6.0 0.00 0.00 0.00 17 1019.0
20240613163744 83 204 2.0 4.0 0.00 0.00 0.00 18 1018.9
20240613163242 82 243 1.0 5.0 0.00 0.00 0.00 20 1018.9
20240613162741 83 264 2.0 4.0 0.00 0.00 0.00 19 1018.9
20240613162240 83 277 2.0 3.0 0.00 0.00 0.00 19 1018.9
20240613161739 84 300 2.0 3.0 0.00 0.00 0.00 21 1018.9
20240613161238 84 292 3.0 3.0 0.00 0.00 0.00 20 1018.9
20240613160737 83 328 0.0 3.0 0.00 0.00 0.00 18 1018.9
20240613160236 84 207 2.0 2.0 0.00 0.00 0.00 14 1019.0
20240613155735 84 269 1.0 2.0 0.00 0.00 0.00 20 1018.8
20240613155233 83 205 0.0 1.0 0.00 0.00 0.00 20 1019.1
20240613154732 82 5 0.0 1.0 0.00 0.00 0.00 19 1019.1
20240613154231 80 238 1.0 2.0 0.00 0.00 0.00 22 1019.1
20240613153731 79 322 0.0 2.0 0.00 0.00 0.00 26 1019.2
20240613153231 79 230 0.0 2.0 0.00 0.00 0.00 27 1019.4
20240613152731 78 287 0.0 2.0 0.00 0.00 0.00 24 1019.1
20240613152230 78 289 1.0 1.0 0.00 0.00 0.00 27 1019.0
20240613151729 78 285 0.0 1.0 0.00 0.00 0.00 22 1019.1
20240613151229 76 64 0.0 1.0 0.00 0.00 0.00 24 1018.8
20240613150727 73 120 2.0 4.0 0.00 0.00 0.00 24 1018.8
20240613150225 72 73 4.0 8.0 0.00 0.00 0.00 26 1018.9
20240613145723 72 102 4.0 5.0 0.00 0.00 0.00 26 1018.9
20240613145223 70 84 2.0 4.0 0.00 0.00 0.00 28 1018.8
20240613144723 70 139 1.0 5.0 0.00 0.00 0.00 27 1019.0
20240613144222 68 99 4.0 6.0 0.00 0.00 0.00 27 1018.9
20240613143721 68 126 2.0 5.0 0.00 0.00 0.00 30 1019.0
20240613143220 68 66 2.0 6.0 0.00 0.00 0.00 30 1019.1
20240613142720 67 59 2.0 6.0 0.00 0.00 0.00 29 1018.5
20240613142218 66 89 7.0 8.0 0.00 0.00 0.00 29 1018.8
20240613141717 66 89 5.0 5.0 0.00 0.00 0.00 29 1018.5
20240613141217 65 123 3.0 5.0 0.00 0.00 0.00 29 1018.4
20240613140715 65 26 4.0 6.0 0.00 0.00 0.00 29 1018.6
20240613140213 66 12 3.0 4.0 0.00 0.00 0.00 29 1018.5
20240613135712 64 153 2.0 4.0 0.00 0.00 0.00 29 1018.6
20240613135211 64 41 3.0 7.0 0.00 0.00 0.00 28 1018.8
20240613134709 63 40 4.0 6.0 0.00 0.00 0.00 30 1018.5
20240613134206 62 47 4.0 4.0 0.00 0.00 0.00 30 1018.5
20240613133705 62 51 9.0 10.0 0.00 0.00 0.00 30 1018.4
20240613133202 60 54 4.0 6.0 0.00 0.00 0.00 31 1018.3
20240613132701 60 37 4.0 9.0 0.00 0.00 0.00 30 1018.3
20240613132159 60 32 6.0 13.0 0.00 0.00 0.00 31 1018.3
20240613131657 59 48 9.0 12.0 0.00 0.00 0.00 31 1018.2
20240613131156 58 49 5.0 10.0 0.00 0.00 0.00 31 1018.3
20240613130655 58 64 5.0 11.0 0.00 0.00 0.00 31 1018.4
20240613130153 58 71 5.0 11.0 0.00 0.00 0.00 32 1018.2
20240613125652 57 45 4.0 8.0 0.00 0.00 0.00 33 1017.9
20240613125151 57 63 8.0 9.0 0.00 0.00 0.00 31 1017.9
20240613124649 58 65 5.0 11.0 0.00 0.00 0.00 31 1018.1
20240613124149 58 55 1.0 7.0 0.00 0.00 0.00 31 1017.6
20240613123648 58 73 5.0 11.0 0.00 0.00 0.00 31 1017.7
20240613123147 58 146 2.0 8.0 0.00 0.00 0.00 30 1017.8
20240613122645 58 45 3.0 8.0 0.00 0.00 0.00 31 1017.7
20240613122143 58 69 4.0 4.0 0.00 0.00 0.00 32 1017.8
20240613121641 58 31 3.0 11.0 0.00 0.00 0.00 30 1017.6
20240613121140 58 25 6.0 12.0 0.00 0.00 0.00 31 1017.5
20240613120639 58 57 9.0 11.0 0.00 0.00 0.00 31 1017.7
20240613120137 58 49 11.0 15.0 0.00 0.00 0.00 31 1017.2
20240613115636 58 64 5.0 11.0 0.00 0.00 0.00 31 1017.2
20240613115135 58 66 4.0 11.0 0.00 0.00 0.00 31 1017.4
20240613114633 58 34 6.0 11.0 0.00 0.00 0.00 31 1017.0
20240613114131 58 43 5.0 9.0 0.00 0.00 0.00 31 1017.1
20240613113630 57 91 5.0 11.0 0.00 0.00 0.00 32 1017.1
20240613113129 58 32 3.0 12.0 0.00 0.00 0.00 32 1017.0
20240613112628 58 11 4.0 8.0 0.00 0.00 0.00 31 1017.1
20240613112127 58 50 6.0 12.0 0.00 0.00 0.00 31 1017.1
20240613111626 58 48 7.0 11.0 0.00 0.00 0.00 31 1017.1
20240613111124 58 347 2.0 9.0 0.00 0.00 0.00 32 1017.2
20240613110624 58 34 8.0 11.0 0.00 0.00 0.00 32 1017.0
20240613110122 58 43 5.0 10.0 0.00 0.00 0.00 31 1017.2
20240613105622 58 69 9.0 11.0 0.00 0.00 0.00 32 1017.2
20240613105120 59 65 5.0 11.0 0.00 0.00 0.00 31 1017.0
20240613104619 59 61 5.0 8.0 0.00 0.00 0.00 31 1017.1
20240613104118 58 112 8.0 8.0 0.00 0.00 0.00 32 1017.0
20240613103618 58 41 5.0 10.0 0.00 0.00 0.00 32 1016.9
20240613103117 59 344 2.0 10.0 0.00 0.00 0.00 32 1017.1
20240613102615 59 70 4.0 10.0 0.00 0.00 0.00 32 1017.0
20240613102114 59 106 6.0 11.0 0.00 0.00 0.00 31 1017.2
20240613101613 59 95 4.0 15.0 0.00 0.00 0.00 31 1017.2
20240613101113 59 62 8.0 12.0 0.00 0.00 0.00 31 1017.5
20240613100612 59 44 6.0 14.0 0.00 0.00 0.00 31 1017.4
20240613100112 60 3 3.0 8.0 0.00 0.00 0.00 31 1017.0
20240613095610 60 113 1.0 7.0 0.00 0.00 0.00 31 1017.2
20240613095109 60 43 8.0 9.0 0.00 0.00 0.00 31 1017.2
20240613094608 59 49 5.0 10.0 0.00 0.00 0.00 31 1017.2
20240613094106 60 81 3.0 7.0 0.00 0.00 0.00 31 1017.1
20240613093605 60 64 4.0 12.0 0.00 0.00 0.00 31 1017.1
20240613093103 60 64 8.0 13.0 0.00 0.00 0.00 31 1017.1
20240613092601 60 72 6.0 11.0 0.00 0.00 0.00 31 1017.1
20240613092059 60 54 6.0 13.0 0.00 0.00 0.00 31 1017.2
20240613091557 61 89 2.0 12.0 0.00 0.00 0.00 31 1017.4
20240613091056 61 14 4.0 10.0 0.00 0.00 0.00 31 1017.0
20240613090555 62 74 2.0 12.0 0.00 0.00 0.00 30 1017.2
20240613090055 61 32 5.0 11.0 0.00 0.00 0.00 30 1016.8
20240613085554 61 24 4.0 12.0 0.00 0.00 0.00 31 1017.0
20240613085052 61 48 7.0 12.0 0.00 0.00 0.00 31 1017.1
20240613084551 61 72 6.0 13.0 0.00 0.00 0.00 31 1016.9
20240613084050 61 19 7.0 8.0 0.00 0.00 0.00 31 1017.2
20240613083548 61 44 5.0 9.0 0.00 0.00 0.00 31 1017.5
20240613083046 62 96 4.0 10.0 0.00 0.00 0.00 30 1017.5
20240613082545 62 60 4.0 7.0 0.00 0.00 0.00 30 1017.2
20240613082044 62 85 6.0 11.0 0.00 0.00 0.00 30 1017.2
20240613081542 63 36 5.0 12.0 0.00 0.00 0.00 29 1016.8
20240613081040 63 57 8.0 11.0 0.00 0.00 0.00 29 1016.8
20240613080538 63 61 4.0 17.0 0.00 0.00 0.00 29 1017.1
20240613080037 62 88 4.0 14.0 0.00 0.00 0.00 30 1017.0
20240613075535 63 59 4.0 16.0 0.00 0.00 0.00 29 1017.0
20240613075035 63 122 9.0 14.0 0.00 0.00 0.00 29 1016.8
20240613074533 63 61 5.0 14.0 0.00 0.00 0.00 30 1016.8
20240613074033 63 63 8.0 12.0 0.00 0.00 0.00 29 1017.0
20240613073533 64 87 11.0 13.0 0.00 0.00 0.00 29 1016.8
20240613073031 64 48 4.0 12.0 0.00 0.00 0.00 29 1016.8
20240613072530 63 62 8.0 12.0 0.00 0.00 0.00 29 1017.0
20240613072029 63 35 9.0 14.0 0.00 0.00 0.00 29 1017.1
20240613071528 64 56 7.0 10.0 0.00 0.00 0.00 29 1017.0
20240613071027 64 34 10.0 14.0 0.00 0.00 0.00 28 1017.0
20240613070525 64 60 8.0 11.0 0.00 0.00 0.00 29 1017.1
20240613070024 64 36 6.0 14.0 0.00 0.00 0.00 28 1017.2
20240613065522 64 61 5.0 10.0 0.00 0.00 0.00 29 1017.1
20240613065021 65 76 7.0 10.0 0.00 0.00 0.00 28 1017.2
20240613064519 65 47 6.0 13.0 0.00 0.00 0.00 28 1017.4
20240613064019 65 47 5.0 9.0 0.00 0.00 0.00 28 1017.0
20240613063517 65 50 4.0 10.0 0.00 0.00 0.00 28 1017.4
20240613063017 65 70 4.0 10.0 0.00 0.00 0.00 28 1017.4
20240613062516 65 34 7.0 10.0 0.00 0.00 0.00 28 1017.1
20240613062014 66 26 2.0 9.0 0.00 0.00 0.00 27 1017.2
20240613061512 66 31 6.0 12.0 0.00 0.00 0.00 27 1017.4
20240613061010 66 70 6.0 11.0 0.00 0.00 0.00 27 1017.2
20240613060510 66 77 6.0 13.0 0.00 0.00 0.00 27 1017.0
20240613060009 67 58 5.0 10.0 0.00 0.03 0.03 27 1017.0
20240613055508 67 39 9.0 13.0 0.00 0.03 0.03 27 1017.1
20240613055006 67 41 2.0 9.0 0.00 0.03 0.03 27 1017.2
20240613054506 67 57 8.0 11.0 0.00 0.03 0.03 27 1017.0
20240613054004 67 31 9.0 10.0 0.00 0.03 0.03 26 1017.0
20240613053504 68 37 7.0 10.0 0.00 0.03 0.03 27 1017.1
20240613053004 68 86 4.0 9.0 0.00 0.03 0.03 26 1017.2
20240613052502 68 9 3.0 6.0 0.00 0.03 0.03 26 1017.4
20240613052001 68 52 9.0 10.0 0.00 0.03 0.03 26 1017.0
20240613051459 69 18 6.0 8.0 0.00 0.03 0.03 26 1017.1
20240613050957 69 68 7.0 9.0 0.00 0.03 0.03 26 1017.0
20240613050455 69 50 4.0 9.0 0.00 0.03 0.03 26 1017.0
20240613045955 69 57 3.0 6.0 0.00 0.03 0.03 26 1017.0
20240613045454 70 57 4.0 11.0 0.00 0.03 0.03 25 1017.1
20240613044953 70 58 4.0 8.0 0.00 0.03 0.03 25 1016.9
20240613044452 71 21 3.0 6.0 0.00 0.03 0.03 25 1016.9
20240613043951 71 50 4.0 8.0 0.00 0.03 0.03 25 1016.8
20240613043450 71 70 4.0 8.0 0.00 0.03 0.03 25 1016.8
20240613042949 71 64 6.0 7.0 0.00 0.03 0.03 25 1016.6
20240613042448 71 44 4.0 7.0 0.00 0.03 0.03 25 1016.4
20240613041946 72 50 4.0 7.0 0.00 0.03 0.03 25 1016.6
20240613041446 72 94 3.0 7.0 0.00 0.03 0.03 25 1016.5
20240613040945 72 58 6.0 7.0 0.00 0.03 0.03 25 1016.4
20240613040445 72 38 5.0 6.0 0.00 0.03 0.03 25 1016.4
20240613035943 72 35 4.0 6.0 0.00 0.03 0.03 26 1016.2
20240613035442 72 48 4.0 5.0 0.00 0.03 0.03 26 1016.4
20240613034941 71 359 2.0 3.0 0.00 0.03 0.03 27 1015.9
20240613034439 71 47 2.0 3.0 0.00 0.03 0.03 26 1016.2
20240613033939 72 51 2.0 3.0 0.00 0.03 0.03 27 1015.9
20240613033437 72 36 2.0 3.0 0.00 0.03 0.03 26 1015.7
20240613032935 72 75 1.0 3.0 0.00 0.03 0.03 26 1015.7
20240613032434 72 48 2.0 3.0 0.00 0.03 0.03 29 1015.7
20240613031932 73 21 2.0 2.0 0.00 0.03 0.03 29 1015.6
20240613031431 73 28 2.0 2.0 0.00 0.03 0.03 27 1015.6
20240613030929 74 8 2.0 2.0 0.00 0.03 0.03 27 1015.7
20240613030426 74 8 3.0 3.0 0.00 0.03 0.03 26 1015.6
20240613025925 75 37 0.0 1.0 0.00 0.03 0.03 26 1015.4
20240613025422 76 13 0.0 1.0 0.00 0.03 0.03 27 1015.4
20240613024921 77 25 0.0 1.0 0.00 0.03 0.03 26 1015.2
20240613024421 78 50 0.0 1.0 0.00 0.03 0.03 25 1015.2
20240613023920 79 2 0.0 1.0 0.00 0.03 0.03 24 1015.4
20240613023419 80 297 0.0 0.0 0.00 0.03 0.03 23 1015.4
20240613022919 81 333 0.0 0.0 0.00 0.03 0.03 20 1015.2
20240613022417 82 269 0.0 0.0 0.00 0.03 0.03 19 1015.5
20240613021916 83 297 0.0 2.0 0.00 0.03 0.03 18 1015.2
20240613021415 83 229 0.0 1.0 0.00 0.03 0.03 19 1015.5
20240613020914 84 272 1.0 2.0 0.00 0.03 0.03 18 1015.0
20240613020413 85 281 1.0 3.0 0.00 0.03 0.03 18 1015.1
20240613015913 86 295 2.0 2.0 0.00 0.03 0.03 19 1015.2
20240613015412 88 264 1.0 2.0 0.00 0.03 0.03 17 1015.4
20240613014913 89 282 1.0 4.0 0.00 0.03 0.03 16 1015.0
20240613014412 90 269 0.0 4.0 0.00 0.03 0.03 15 1015.2
20240613013911 90 297 5.0 5.0 0.00 0.03 0.03 14 1015.2
20240613013410 91 273 3.0 4.0 0.00 0.03 0.03 15 1014.8
20240613012909 91 273 2.0 3.0 0.00 0.03 0.03 15 1015.0
20240613012409 91 301 2.0 4.0 0.00 0.03 0.03 15 1015.0
20240613011907 91 267 2.0 4.0 0.00 0.03 0.03 14 1014.8
20240613011404 92 280 1.0 4.0 0.00 0.03 0.03 14 1015.0
20240613010904 94 290 2.0 2.0 0.00 0.03 0.03 16 1015.1
20240613010401 92 285 2.0 4.0 0.00 0.03 0.03 14 1014.8
20240613005859 93 307 2.0 3.0 0.00 0.03 0.03 16 1015.0
20240613005357 93 283 2.0 4.0 0.00 0.03 0.03 15 1015.0
20240613004856 92 265 3.0 8.0 0.00 0.03 0.03 14 1014.9
20240613004354 93 290 2.0 5.0 0.00 0.03 0.03 16 1015.0
20240613003852 93 212 0.0 3.0 0.00 0.03 0.03 14 1014.7
20240613003350 95 264 1.0 2.0 0.00 0.03 0.03 14 1014.9
20240613002849 94 262 3.0 5.0 0.00 0.03 0.03 15 1014.9
20240613002347 94 288 2.0 4.0 0.00 0.03 0.03 14 1015.0
20240613001846 97 276 2.0 2.0 0.00 0.03 0.03 15 1014.9